Location: Eastlake (historical)
(39.0077°N, 122.6678°W)
Time: 06:16:05
(UTC+00:00)

Lacrosse 5 - Pass Details

Date: 25 November 2020
Orbit: 713 x 726 km, 57.0° (Epoch: 23 January)

Event Time Altitude Azimuth Distance (km) Brightness Sun altitude
Rises 14:29:27 0° 248° (WSW) 3,103 4.7 -7.2°
Reaches altitude 10° 14:32:01 10° 258° (WSW) 2,186 3.9 -6.7°
Maximum altitude 14:36:35 34° 323° (NW) 1,163 2.5 -5.9°
Drops below altitude 10° 14:41:10 10° 28° (NNE) 2,195 4.5 -5.1°
Sets 14:43:46 0° 38° (NE) 3,118 5.4 -4.6°
